• In Spain
  • List of Countries
  • For 7 days
  • Water Temperature
  • Satellite Maps
  • Weather Map
  • Weather Widgets
  • user-avatar
    Login

    Hourly Weather Kormovische

    Today, 14 August, Tuesday

    Time Temperature Precipitation Wind Pressure Humidity
    00:00 +17°C° 0 mm 2 mps 731 mmHg 95%
    01:00 +16°C° 0 mm 2 mps 731 mmHg 97%
    02:00 +16°C° 0 mm 2 mps 731 mmHg 97%
    03:00 +16°C° 0 mm 2 mps 731 mmHg 97%
    04:00 +16°C° 0 mm 1 mps 731 mmHg 98%
    05:00 +18°C° 0.1 mm 1 mps 731 mmHg 96%
    06:00 +18°C° 0.1 mm 1 mps 731 mmHg 95%
    07:00 +19°C° 0.1 mm 1 mps 731 mmHg 94%
    08:00 +20°C° 0.4 mm 1 mps 731 mmHg 87%
    09:00 +22°C° 0.4 mm 1 mps 731 mmHg 80%
    10:00 +23°C° 0 mm 2 mps 732 mmHg 76%
    11:00 +23°C° 0.7 mm 2 mps 732 mmHg 75%
    12:00 +23°C° 0.7 mm 2 mps 732 mmHg 75%
    13:00 +23°C° 0.7 mm 2 mps 732 mmHg 74%
    14:00 +21°C° 0.6 mm 2 mps 732 mmHg 75%
    15:00 +21°C° 0.6 mm 2 mps 732 mmHg 76%
    16:00 +20°C° 0 mm 2 mps 732 mmHg 76%
    17:00 +19°C° 0.1 mm 2 mps 732 mmHg 79%
    18:00 +18°C° 0.1 mm 2 mps 732 mmHg 82%
    19:00 +16°C° 0.1 mm 2 mps 732 mmHg 85%
    20:00 +16°C° 0 mm 1 mps 732 mmHg 86%
    21:00 +15°C° 0 mm 1 mps 732 mmHg 87%
    22:00 +14°C° 0 mm 1 mps 732 mmHg 88%
    23:00 +13°C° 0 mm 1 mps 732 mmHg 90%

    Tomorrow, 15 August, Wednesday

    Time Temperature Precipitation Wind Pressure Humidity
    00:00 +13°C° 0 mm 1 mps 733 mmHg 93%
    01:00 +12°C° 0 mm 1 mps 733 mmHg 95%
    02:00 +12°C° 0 mm 1 mps 733 mmHg 96%
    03:00 +12°C° 0 mm 1 mps 733 mmHg 96%
    04:00 +12°C° 0 mm 1 mps 733 mmHg 97%
    05:00 +12°C° 0 mm 2 mps 733 mmHg 95%
    06:00 +13°C° 0 mm 2 mps 734 mmHg 92%
    07:00 +14°C° 0 mm 2 mps 734 mmHg 90%
    08:00 +14°C° 0 mm 3 mps 734 mmHg 80%
    09:00 +17°C° 0 mm 3 mps 734 mmHg 70%
    10:00 +19°C° 0 mm 4 mps 734 mmHg 61%
    11:00 +20°C° 0 mm 4 mps 734 mmHg 57%
    12:00 +20°C° 0 mm 4 mps 734 mmHg 53%
    13:00 +21°C° 0 mm 4 mps 735 mmHg 49%
    14:00 +21°C° 0 mm 4 mps 735 mmHg 49%
    15:00 +21°C° 0 mm 4 mps 735 mmHg 49%
    16:00 +21°C° 0 mm 4 mps 735 mmHg 49%
    17:00 +20°C° 0 mm 3 mps 735 mmHg 57%
    18:00 +19°C° 0 mm 2 mps 735 mmHg 64%
    19:00 +17°C° 0 mm 2 mps 735 mmHg 72%
    20:00 +16°C° 0 mm 2 mps 736 mmHg 77%
    21:00 +14°C° 0 mm 1 mps 736 mmHg 81%
    22:00 +13°C° 0 mm 1 mps 736 mmHg 86%
    23:00 +12°C° 0 mm 1 mps 736 mmHg 88%

    Day after tomorrow, 16 August, Thursday

    Time Temperature Precipitation Wind Pressure Humidity
    00:00 +12°C° 0 mm 1 mps 736 mmHg 90%
    01:00 +11°C° 0 mm 1 mps 736 mmHg 92%
    02:00 +11°C° 0 mm 1 mps 736 mmHg 93%
    03:00 +11°C° 0 mm 1 mps 736 mmHg 94%
    04:00 +11°C° 0 mm 1 mps 736 mmHg 95%
    05:00 +12°C° 0 mm 1 mps 736 mmHg 91%
    06:00 +13°C° 0 mm 2 mps 736 mmHg 87%
    07:00 +14°C° 0 mm 2 mps 736 mmHg 83%
    08:00 +14°C° 0.4 mm 3 mps 735 mmHg 83%
    09:00 +14°C° 0.4 mm 3 mps 735 mmHg 84%
    10:00 +15°C° 0.4 mm 4 mps 734 mmHg 84%
    11:00 +15°C° 2 mm 4 mps 734 mmHg 86%
    12:00 +15°C° 2 mm 4 mps 733 mmHg 89%
    13:00 +17°C° 2 mm 4 mps 733 mmHg 91%
    14:00 +17°C° 0.6 mm 4 mps 733 mmHg 93%
    15:00 +15°C° 0.6 mm 4 mps 733 mmHg 94%
    16:00 +15°C° 0.6 mm 4 mps 733 mmHg 96%
    17:00 +17°C° 0.4 mm 4 mps 733 mmHg 97%
    18:00 +17°C° 0.4 mm 3 mps 733 mmHg 97%
    19:00 +17°C° 0.4 mm 3 mps 733 mmHg 97%
    20:00 +16°C° 0.1 mm 3 mps 733 mmHg 97%
    21:00 +16°C° 0.1 mm 3 mps 733 mmHg 98%
    22:00 +15°C° 0.1 mm 2 mps 733 mmHg 98%
    23:00 +14°C° 0 mm 2 mps 733 mmHg 98%

    17 August, Friday

    Time Temperature Precipitation Wind Pressure Humidity
    00:00 +14°C° 0 mm 2 mps 733 mmHg 98%
    01:00 +13°C° 0 mm 2 mps 733 mmHg 98%
    02:00 +12°C° 0 mm 2 mps 734 mmHg 98%
    03:00 +12°C° 0 mm 2 mps 734 mmHg 98%
    04:00 +10°C° 0 mm 2 mps 734 mmHg 98%
    05:00 +12°C° 0 mm 2 mps 735 mmHg 97%
    06:00 +12°C° 0 mm 2 mps 735 mmHg 97%
    07:00 +12°C° 0 mm 2 mps 735 mmHg 96%
    08:00 +14°C° 0 mm 2 mps 735 mmHg 88%
    09:00 +15°C° 0 mm 2 mps 736 mmHg 80%
    10:00 +17°C° 0 mm 2 mps 736 mmHg 72%
    11:00 +18°C° 0.1 mm 2 mps 736 mmHg 68%
    12:00 +19°C° 0.1 mm 2 mps 736 mmHg 65%
    13:00 +20°C° 0.1 mm 3 mps 736 mmHg 61%
    14:00 +19°C° 0.3 mm 3 mps 736 mmHg 63%
    15:00 +19°C° 0.3 mm 2 mps 736 mmHg 65%
    16:00 +19°C° 0.3 mm 2 mps 736 mmHg 67%
    17:00 +18°C° 0.1 mm 2 mps 736 mmHg 71%
    18:00 +16°C° 0.1 mm 2 mps 737 mmHg 75%
    19:00 +15°C° 0.1 mm 1 mps 737 mmHg 80%
    20:00 +14°C° 0 mm 2 mps 737 mmHg 81%
    21:00 +12°C° 0 mm 2 mps 737 mmHg 83%
    22:00 +10°C° 0 mm 2 mps 738 mmHg 85%
    23:00 +9°C° 0 mm 2 mps 738 mmHg 85%

    18 August, Saturday

    Time Temperature Precipitation Wind Pressure Humidity
    00:00 +9°C° 0 mm 2 mps 738 mmHg 85%
    01:00 +8°C° 0 mm 2 mps 738 mmHg 85%
    02:00 +8°C° 0 mm 2 mps 738 mmHg 86%
    03:00 +7°C° 0 mm 2 mps 739 mmHg 87%
    04:00 +7°C° 0 mm 2 mps 739 mmHg 88%
    05:00 +8°C° 0 mm 2 mps 739 mmHg 84%
    06:00 +9°C° 0 mm 2 mps 739 mmHg 80%
    07:00 +10°C° 0 mm 2 mps 740 mmHg 76%
    08:00 +12°C° 0 mm 2 mps 740 mmHg 69%
    09:00 +13°C° 0 mm 3 mps 740 mmHg 61%
    10:00 +16°C° 0 mm 3 mps 740 mmHg 54%
    11:00 +16°C° 0 mm 3 mps 740 mmHg 52%
    12:00 +17°C° 0 mm 3 mps 740 mmHg 50%
    13:00 +17°C° 0 mm 3 mps 740 mmHg 49%
    14:00 +17°C° 0 mm 3 mps 740 mmHg 50%
    15:00 +17°C° 0 mm 3 mps 740 mmHg 52%
    16:00 +17°C° 0 mm 3 mps 740 mmHg 54%
    17:00 +14°C° 0 mm 3 mps 740 mmHg 60%
    18:00 +14°C° 0 mm 2 mps 740 mmHg 67%
    19:00 +13°C° 0 mm 2 mps 740 mmHg 74%
    20:00 +12°C° 0 mm 2 mps 741 mmHg 78%
    21:00 +10°C° 0 mm 1 mps 741 mmHg 83%
    22:00 +9°C° 0 mm 1 mps 741 mmHg 88%
    23:00 +8°C° 0 mm 1 mps 741 mmHg 90%

    19 August, Sunday

    Time Temperature Precipitation Wind Pressure Humidity
    00:00 +8°C° 0 mm 1 mps 741 mmHg 92%
    01:00 +7°C° 0 mm 1 mps 742 mmHg 94%
    02:00 +7°C° 0 mm 1 mps 742 mmHg 94%
    03:00 +7°C° 0 mm 1 mps 742 mmHg 94%
    04:00 +7°C° 0 mm 1 mps 742 mmHg 95%
    05:00 +8°C° 0 mm 1 mps 742 mmHg 89%
    06:00 +9°C° 0 mm 1 mps 743 mmHg 83%
    07:00 +11°C° 0 mm 1 mps 743 mmHg 77%
    08:00 +13°C° 0 mm 1 mps 743 mmHg 68%
    09:00 +15°C° 0 mm 1 mps 743 mmHg 59%
    10:00 +17°C° 0 mm 2 mps 742 mmHg 50%
    11:00 +18°C° 0 mm 2 mps 742 mmHg 47%
    12:00 +18°C° 0 mm 2 mps 742 mmHg 44%
    13:00 +19°C° 0 mm 2 mps 741 mmHg 41%
    14:00 +19°C° 0 mm 2 mps 741 mmHg 42%
    15:00 +19°C° 0 mm 2 mps 741 mmHg 43%
    16:00 +19°C° 0 mm 2 mps 741 mmHg 43%
    17:00 +19°C° 0 mm 1 mps 741 mmHg 52%
    18:00 +16°C° 0 mm 1 mps 740 mmHg 61%
    19:00 +15°C° 0 mm 1 mps 740 mmHg 70%
    20:00 +13°C° 0 mm 1 mps 740 mmHg 74%
    21:00 +11°C° 0 mm 1 mps 740 mmHg 79%
    22:00 +10°C° 0 mm 1 mps 740 mmHg 84%
    23:00 +8°C° 0 mm 0 mps 740 mmHg 86%
    Show more